TimeMDT,TemperatureF,Dew PointF,Humidity,Sea Level PressureIn,VisibilityMPH,Wind Direction,Wind SpeedMPH,Gust SpeedMPH,PrecipitationIn,Events,Conditions,WindDirDegrees,DateUTC
12:15 AM,57.2,10.4,16,29.66,10.0,WNW,17.3,25.3,N/A,,Clear,290,2014-03-11 06:15:00
12:35 AM,53.6,10.4,18,29.65,10.0,NW,10.4,-,N/A,,Clear,320,2014-03-11 06:35:00
12:55 AM,55.4,10.4,17,29.66,10.0,NW,9.2,19.6,N/A,,Clear,310,2014-03-11 06:55:00
1:15 AM,53.6,10.4,18,29.66,10.0,West,19.6,24.2,N/A,,Clear,280,2014-03-11 07:15:00
1:35 AM,53.6,10.4,18,29.67,10.0,NW,10.4,-,N/A,,Clear,320,2014-03-11 07:35:00
1:54 AM,51.8,14.0,22,29.67,10.0,WNW,10.4,17.3,N/A,,Clear,290,2014-03-11 07:54:00
2:14 AM,51.8,15.8,24,29.66,10.0,NW,12.7,-,N/A,,Clear,310,2014-03-11 08:14:00
2:34 AM,51.8,14.0,22,29.65,10.0,NW,5.8,9.2,N/A,,Clear,310,2014-03-11 08:34:00
2:55 AM,51.8,12.2,21,29.65,10.0,West,18.4,23.0,N/A,,Clear,260,2014-03-11 08:55:00
3:15 AM,55.4,12.2,18,29.65,10.0,West,13.8,18.4,N/A,,Clear,270,2014-03-11 09:15:00
3:35 AM,50.0,12.2,22,29.66,10.0,West,10.4,18.4,N/A,,Clear,260,2014-03-11 09:35:00
3:55 AM,50.0,17.6,28,29.67,10.0,West,21.9,-,N/A,,Scattered Clouds,280,2014-03-11 09:55:00
4:14 AM,50.0,19.4,30,29.67,10.0,West,21.9,28.8,N/A,,Clear,270,2014-03-11 10:14:00
4:35 AM,48.2,21.2,34,29.66,10.0,West,25.3,32.2,N/A,,Clear,280,2014-03-11 10:35:00
4:55 AM,46.4,23.0,40,29.67,10.0,West,20.7,29.9,N/A,,Clear,280,2014-03-11 10:55:00
5:15 AM,44.6,23.0,43,29.67,10.0,WSW,5.8,12.7,N/A,,Clear,250,2014-03-11 11:15:00
5:35 AM,42.8,23.0,46,29.67,10.0,West,12.7,17.3,N/A,,Clear,270,2014-03-11 11:35:00
5:47 AM,42.8,21.2,42,29.68,40.0,West,6.9,-,N/A,,Scattered Clouds,270,2014-03-11 11:47:00
5:55 AM,44.6,24.8,46,29.67,10.0,West,27.6,33.4,N/A,,Clear,270,2014-03-11 11:55:00
6:47 AM,42.8,21.2,42,29.72,40.0,WNW,29.9,41.4,N/A,,Scattered Clouds,290,2014-03-11 12:47:00
7:47 AM,44.6,23.0,43,29.97,70.0,WNW,10.4,-,N/A,,Mostly Cloudy,300,2014-03-11 13:47:00
8:45 AM,42.8,21.2,42,29.78,70.0,West,21.9,26.5,N/A,,Mostly Cloudy,260,2014-03-11 14:45:00
9:55 AM,46.4,19.4,34,29.84,50.0,WSW,17.3,24.2,N/A,,Mostly Cloudy,250,2014-03-11 15:55:00
10:47 AM,39.2,30.2,70,29.90,50.0,NNE,20.7,-,N/A,,Mostly Cloudy,30,2014-03-11 16:47:00
11:47 AM,37.4,26.6,65,29.97,50.0,North,26.5,31.1,N/A,,Mostly Cloudy,10,2014-03-11 17:47:00
12:12 PM,37.4,26.6,65,29.99,2.0,North,26.5,36.8,N/A,Snow,Light Snow,360,2014-03-11 18:12:00
12:30 PM,35.6,28.4,75,30.01,1.5,North,27.6,34.5,N/A,Snow,Light Snow,10,2014-03-11 18:30:00
12:47 PM,32.0,30.2,93,30.03,0.8,North,24.2,33.4,N/A,Snow,Snow,10,2014-03-11 18:47:00
1:47 PM,30.2,28.4,93,30.10,0.8,North,15.0,31.1,N/A,Snow,Light Snow,350,2014-03-11 19:47:00
2:14 PM,32.0,28.4,87,30.12,3.0,North,24.2,31.1,N/A,Snow,Light Snow,350,2014-03-11 20:14:00
2:46 PM,32.0,28.4,87,30.13,3.0,North,21.9,29.9,N/A,Snow,Light Snow,350,2014-03-11 20:46:00
3:53 PM,32.0,28.4,87,30.18,5.0,North,23.0,33.4,N/A,,Overcast,360,2014-03-11 21:53:00
4:50 PM,32.0,26.6,80,30.21,10.0,North,23.0,-,N/A,,Mostly Cloudy,350,2014-03-11 22:50:00
5:53 PM,32.0,23.0,69,30.24,10.0,North,17.3,31.1,N/A,,Mostly Cloudy,360,2014-03-11 23:53:00
6:49 PM,32.0,19.4,60,30.26,15.0,North,12.7,-,N/A,,Mostly Cloudy,360,2014-03-12 00:49:00
7:53 PM,30.2,17.6,60,30.29,20.0,Calm,Calm,-,N/A,,Mostly Cloudy,0,2014-03-12 01:53:00
8:55 PM,28.4,15.8,59,30.31,20.0,Variable,5.8,-,N/A,,Scattered Clouds,0,2014-03-12 02:55:00
9:45 PM,28.4,15.8,59,30.33,20.0,Variable,4.6,-,N/A,,Scattered Clouds,0,2014-03-12 03:45:00
11:15 PM,26.6,17.6,69,30.33,10.0,Calm,Calm,-,N/A,,Clear,0,2014-03-12 05:15:00
11:34 PM,26.6,17.6,69,30.33,10.0,Calm,Calm,-,N/A,,Clear,0,2014-03-12 05:34:00
11:55 PM,26.6,17.6,69,30.33,10.0,Calm,Calm,-,N/A,,Clear,0,2014-03-12 05:55:00